Weather History for KCPC - December, 2012

Change the Weather History Date:

Tuesday, December 11, 2012

  Actual Average (KLBT) Record (KLBT)
Temperature  
Mean Temperature 62 °F 47 °F  
Max Temperature 69 °F 58 °F 80 °F (2007)
Min Temperature 55 °F 36 °F 27 °F (2010)
Degree Days  
Heating Degree Days 3 18  
Month to date heating degree days 184  
Since 1 July heating degree days 650  
Cooling Degree Days 0 0  
Month to date cooling degree days 0  
Year to date cooling degree days 1907  
Growing Degree Days 12 (Base 50)    
Moisture  
Dew Point 59 °F    
Average Humidity 87    
Maximum Humidity 99    
Minimum Humidity 65    
Precipitation  
Precipitation 0.07 in 0.10 in 0.48 in (2008)
Month to date precipitation 1.15  
Year to date precipitation 41.78  
Sea Level Pressure  
Sea Level Pressure 29.92 in    
Wind  
Wind Speed 2 mph (SW)    
Max Wind Speed 8 mph    
Max Gust Speed -    
Visibility 8 miles    
Events Rain    
T = Trace of Precipitation, MM = Missing Value Source: NWS Daily Summary

Daily Weather History Graph

Daily Weather History Graph

Search for Another Location

Airport or City:

Trip Planner

Search our weather history database for the weather conditions in past years. The results will help you decide how hot, cold, wet, or windy it might be!

Date:

Astronomy

Dec. 11, 2012 Rise Set
Actual Time 7:11 AM EST 5:05 PM EST
Civil Twilight 6:43 AM EST 5:33 PM EST
Nautical Twilight 6:12 AM EST 6:04 PM EST
Astronomical Twilight 5:41 AM EST 6:35 PM EST
Moon 5:06 AM EST (12/11) 3:41 PM EST (12/11)
Length of Visible Light 10h 49m
Length of Day
9h 54m
Waning Crescent, 4% of the Moon is Illuminated
Dec 11
Waning Crescent
Dec 13
New
Dec 20
First Quarter
Dec 28
Full
Jan 4
Last Quarter

Hourly Weather History & Observations

Time (EST) Temp. Dew Point Humidity Pressure Visibility Wind Dir Wind Speed Gust Speed Precip Events Conditions
12:15 AM 61.7 °F 57.7 °F 87% 29.78 in 10.0 mi South 3.5 mph - N/A   Clear
12:35 AM 61.9 °F 58.3 °F 88% 29.78 in 10.0 mi South 4.6 mph - N/A   Clear
12:55 AM 62.1 °F 58.8 °F 89% 29.78 in 10.0 mi Calm Calm - N/A   Clear
1:15 AM 62.6 °F 59.5 °F 90% 29.79 in 10.0 mi SW 3.5 mph - N/A   Scattered Clouds
1:35 AM 63.0 °F 60.3 °F 91% 29.78 in 10.0 mi Calm Calm - N/A   Scattered Clouds
1:55 AM 63.5 °F 60.8 °F 91% 29.78 in 10.0 mi South 3.5 mph - N/A   Clear
2:15 AM 63.5 °F 61.2 °F 92% 29.78 in 10.0 mi Calm Calm - N/A   Clear
2:35 AM 64.0 °F 62.1 °F 93% 29.79 in 10.0 mi South 3.5 mph - N/A   Scattered Clouds
2:55 AM 64.0 °F 62.1 °F 93% 29.80 in 10.0 mi Calm Calm - N/A   Clear
3:15 AM 63.5 °F 61.7 °F 94% 29.80 in 10.0 mi Calm Calm - N/A   Clear
3:35 AM 63.1 °F 61.7 °F 95% 29.80 in 10.0 mi Calm Calm - N/A   Clear
3:55 AM 63.0 °F 61.7 °F 96% 29.80 in 10.0 mi Calm Calm - N/A   Scattered Clouds
4:15 AM 62.8 °F 61.7 °F 96% 29.79 in 7.0 mi Calm Calm - N/A   Scattered Clouds
4:35 AM 61.5 °F 60.3 °F 96% 29.80 in 5.0 mi Calm Calm - N/A   Clear
4:55 AM 62.4 °F 61.7 °F 97% 29.80 in 5.0 mi Calm Calm - N/A   Clear
5:15 AM 61.9 °F 61.2 °F 97% 29.81 in 4.0 mi Calm Calm - N/A   Clear
5:35 AM 61.9 °F 61.3 °F 98% 29.82 in 3.0 mi Calm Calm - N/A   Mist
5:55 AM 61.7 °F 61.3 °F 99% 29.82 in 2.0 mi Calm Calm - N/A   Clear
6:15 AM 60.8 °F 60.4 °F 99% 29.83 in 7.0 mi SSW 3.5 mph - N/A   Clear
6:35 AM 62.2 °F 61.9 °F 99% 29.84 in 10.0 mi Calm Calm - N/A   Clear
6:55 AM 62.1 °F 61.7 °F 99% 29.85 in 10.0 mi Calm Calm - N/A   Clear
7:15 AM 63.0 °F 62.4 °F 98% 29.86 in 10.0 mi SW 3.5 mph - N/A   Clear
7:35 AM 63.5 °F 62.6 °F 97% 29.87 in 10.0 mi Calm Calm - N/A   Clear
7:55 AM 63.5 °F 62.2 °F 96% 29.88 in 10.0 mi SW 4.6 mph - N/A   Clear
8:15 AM 63.9 °F 62.4 °F 95% 29.89 in 10.0 mi Calm Calm - N/A   Clear
8:35 AM 64.9 °F 62.6 °F 92% 29.90 in 10.0 mi WSW 4.6 mph - N/A   Mostly Cloudy
8:55 AM 64.8 °F 61.7 °F 90% 29.91 in 10.0 mi WSW 6.9 mph - N/A   Overcast
9:15 AM 64.6 °F 61.0 °F 88% 29.92 in 10.0 mi West 3.5 mph - N/A   Overcast
9:35 AM 64.6 °F 60.8 °F 88% 29.94 in 10.0 mi West 4.6 mph - N/A   Overcast
9:55 AM 65.8 °F 60.1 °F 82% 29.95 in 10.0 mi West 8.1 mph - N/A   Scattered Clouds
10:15 AM 66.4 °F 58.6 °F 76% 29.95 in 10.0 mi West 6.9 mph - N/A   Clear
10:35 AM 66.2 °F 57.9 °F 75% 29.95 in 10.0 mi WSW 8.1 mph - N/A   Scattered Clouds
10:55 AM 67.1 °F 57.9 °F 72% 29.95 in 10.0 mi West 4.6 mph - N/A   Scattered Clouds
11:15 AM 67.8 °F 58.1 °F 71% 29.95 in 10.0 mi WSW 3.5 mph - N/A   Scattered Clouds
11:35 AM 67.3 °F 57.2 °F 70% 29.95 in 10.0 mi WNW 4.6 mph - N/A   Scattered Clouds
11:55 AM 68.0 °F 56.8 °F 67% 29.95 in 10.0 mi Calm Calm - N/A   Clear
12:15 PM 69.1 °F 56.7 °F 65% 29.94 in 10.0 mi SSW 3.5 mph - N/A   Clear
12:35 PM 68.9 °F 56.5 °F 65% 29.93 in 10.0 mi South 3.5 mph - N/A   Clear
12:55 PM 68.9 °F 56.7 °F 65% 29.93 in 10.0 mi SSW 3.5 mph - N/A   Clear
1:15 PM 68.9 °F 56.7 °F 65% 29.94 in 10.0 mi SW 4.6 mph - N/A   Scattered Clouds
1:35 PM 68.5 °F 57.2 °F 67% 29.93 in 10.0 mi West 3.5 mph - N/A   Scattered Clouds
1:55 PM 68.5 °F 57.6 °F 68% 29.93 in 10.0 mi West 6.9 mph - N/A   Mostly Cloudy
2:15 PM 68.9 °F 57.6 °F 67% 29.93 in 10.0 mi Calm Calm - N/A   Mostly Cloudy
2:35 PM 68.0 °F 57.4 °F 69% 29.94 in 10.0 mi West 4.6 mph - N/A   Scattered Clouds
2:55 PM 67.6 °F 57.7 °F 71% 29.94 in 10.0 mi Calm Calm - N/A   Scattered Clouds
3:15 PM 67.1 °F 58.1 °F 73% 29.94 in 10.0 mi Calm Calm - N/A   Scattered Clouds
3:35 PM 66.9 °F 58.1 °F 73% 29.95 in 10.0 mi Calm Calm - N/A   Clear
3:55 PM 66.4 °F 58.1 °F 75% 29.95 in 10.0 mi Calm Calm - N/A   Clear
4:15 PM 66.2 °F 58.3 °F 76% 29.96 in 10.0 mi Calm Calm - N/A   Scattered Clouds
4:35 PM 65.8 °F 58.3 °F 77% 29.97 in 10.0 mi Calm Calm - N/A   Mostly Cloudy
4:55 PM 64.2 °F 59.0 °F 83% 29.98 in 10.0 mi Calm Calm - N/A Rain Light Rain
5:15 PM 63.0 °F 59.4 °F 88% 29.99 in 10.0 mi Calm Calm - 0.01 in   Drizzle
5:35 PM 61.7 °F 59.9 °F 94% 30.00 in 7.0 mi Calm Calm - 0.01 in Rain Light Rain
5:55 PM 61.2 °F 59.7 °F 95% 30.00 in 7.0 mi Calm Calm - 0.01 in   Scattered Clouds
6:15 PM 60.8 °F 59.9 °F 97% 30.00 in 5.0 mi Calm Calm - 0.01 in Rain Light Rain
6:35 PM 61.0 °F 59.9 °F 96% 30.01 in 7.0 mi Calm Calm - 0.02 in Rain Light Rain
6:55 PM 60.4 °F 59.4 °F 96% 30.00 in 5.0 mi Calm Calm - 0.02 in Rain Rain
7:15 PM 60.6 °F 59.5 °F 96% 30.01 in 4.0 mi Calm Calm - 0.02 in Rain Rain
7:35 PM 60.3 °F 59.4 °F 97% 30.02 in 4.0 mi Calm Calm - 0.03 in Rain Light Rain
7:55 PM 59.9 °F 59.2 °F 97% 30.02 in 1.8 mi Calm Calm - 0.04 in Rain Light Rain
8:15 PM 60.1 °F 59.5 °F 98% 30.03 in 4.0 mi Calm Calm - N/A   Mostly Cloudy
8:35 PM 60.1 °F 59.5 °F 98% 30.03 in 4.0 mi Calm Calm - N/A Rain Rain
8:55 PM 60.1 °F 59.5 °F 98% 30.04 in 4.0 mi Calm Calm - N/A   Overcast
9:15 PM 60.1 °F 59.5 °F 98% 30.04 in 5.0 mi Calm Calm - N/A   Overcast
9:35 PM 59.9 °F 59.4 °F 98% 30.06 in 3.0 mi Calm Calm - N/A   Overcast
9:55 PM 57.0 °F 55.4 °F 94% 30.06 in 10.0 mi Calm Calm - N/A Rain Light Rain
10:15 PM 56.8 °F 52.7 °F 86% 30.06 in 10.0 mi Calm Calm - N/A   Overcast
10:35 PM 56.3 °F 52.7 °F 88% 30.06 in 10.0 mi Calm Calm - N/A Rain Rain
10:55 PM 55.4 °F 53.1 °F 92% 30.08 in 10.0 mi Calm Calm - N/A   Drizzle
11:15 PM 55.6 °F 52.7 °F 90% 30.07 in 10.0 mi Calm Calm - N/A   Light Drizzle
11:35 PM 55.4 °F 52.3 °F 89% 30.08 in 10.0 mi Calm Calm - N/A   Overcast
11:55 PM 55.4 °F 52.7 °F 91% 30.08 in 10.0 mi Calm Calm - N/A Rain Light Rain